FW4300 Weather Reports


Display with metric or nautical units.
time (UTC)temp
F
wind
direction
speed
MPH
gust
MPH
rain 1hr
in
rain 24hr
in
rain mn
in
humidity
%
barometer
mb
20260505022517 77 134 0.0 0.0 0.00 0.17 0.00 73 1018.1
20260505022017 77 136 0.0 0.0 0.00 0.17 0.00 72 1018.2
20260505021518 77 148 0.0 0.0 0.00 0.17 0.00 72 1018.2
20260505021016 77 143 0.0 0.0 0.00 0.17 0.00 72 1018.1
20260505020515 77 147 0.0 0.0 0.00 0.17 0.00 72 1018.2
20260505020018 77 167 0.0 0.0 0.00 0.17 0.00 72 1018.1
20260505015517 77 171 0.0 0.0 0.00 0.17 0.00 71 1018.1
20260505015017 77 149 0.0 0.0 0.00 0.17 0.00 71 1018.1
20260505014516 77 149 0.0 0.0 0.00 0.17 0.00 70 1018.0
20260505014015 77 171 0.0 0.0 0.00 0.17 0.00 70 1017.8
20260505013514 77 169 0.0 0.0 0.00 0.17 0.00 70 1017.9
20260505013019 77 135 0.0 0.0 0.00 0.17 0.00 70 1017.8
20260505012515 77 131 0.0 0.0 0.00 0.17 0.00 70 1017.6
20260505012014 77 130 0.0 0.0 0.00 0.17 0.00 69 1017.6
20260505011521 77 162 0.0 0.0 0.00 0.17 0.00 69 1017.5
20260505011016 77 142 0.0 0.0 0.00 0.17 0.00 69 1017.4
20260505010512 77 156 0.0 0.0 0.00 0.17 0.00 69 1017.4
20260505010013 77 172 0.0 0.0 0.00 0.17 0.00 69 1017.3
20260505005513 77 154 0.0 0.0 0.00 0.17 0.00 69 1017.3
20260505005014 77 176 0.0 0.0 0.00 0.17 0.00 69 1017.3
20260505004529 77 162 0.0 0.0 0.00 0.17 0.00 69 1017.3
20260505004012 78 183 0.0 0.0 0.00 0.17 0.00 69 1017.4
20260505003512 78 106 0.0 0.0 0.00 0.17 0.00 68 1017.4
20260505003012 78 136 0.0 0.0 0.00 0.17 0.00 69 1017.3
20260505002513 77 119 0.0 0.0 0.00 0.17 0.00 69 1017.4
20260505002012 77 137 0.0 0.0 0.00 0.17 0.00 69 1017.3
20260505001512 77 141 0.0 0.0 0.00 0.17 0.00 70 1017.3
20260505001011 77 122 0.0 0.0 0.00 0.17 0.00 69 1017.3
20260505000511 77 122 0.0 0.0 0.00 0.17 0.00 69 1017.4
20260505000015 77 166 0.0 0.0 0.00 0.17 0.00 69 1017.2
20260504235511 77 247 0.0 0.0 0.00 0.17 0.00 68 1017.0
20260504235011 78 213 0.0 0.0 0.00 0.17 0.00 68 1017.0
20260504234509 78 148 0.0 0.0 0.00 0.17 0.00 67 1016.9
20260504234009 78 143 0.0 0.0 0.00 0.17 0.00 67 1016.8
20260504233511 79 143 0.0 0.0 0.00 0.17 0.00 67 1016.9
20260504233009 79 143 0.0 0.0 0.00 0.17 0.00 66 1016.8
20260504232509 79 143 0.0 0.0 0.00 0.17 0.00 66 1016.8
20260504232008 79 145 0.0 0.0 0.00 0.17 0.00 66 1016.8
20260504231509 79 139 0.0 0.0 0.00 0.17 0.00 66 1016.8
20260504231009 79 127 0.0 0.0 0.00 0.17 0.00 66 1016.7
20260504230508 79 126 0.0 0.0 0.00 0.17 0.00 66 1016.7
20260504230015 79 127 0.0 0.0 0.00 0.17 0.00 66 1016.7
20260504225510 79 127 0.0 0.0 0.00 0.17 0.00 66 1016.5
20260504225008 79 105 0.0 0.0 0.00 0.17 0.00 66 1016.6
20260504224508 79 115 0.0 0.0 0.00 0.17 0.00 66 1016.6
20260504224007 79 106 0.0 0.0 0.00 0.17 0.00 66 1016.4
20260504223510 79 130 0.0 0.0 0.00 0.17 0.00 65 1016.4
20260504223008 79 105 0.0 0.0 0.00 0.17 0.00 65 1016.3
20260504222511 79 83 0.0 0.0 0.00 0.17 0.00 65 1016.2
20260504222013 80 101 0.0 0.0 0.00 0.17 0.00 65 1016.2
20260504221507 80 116 0.0 0.0 0.00 0.17 0.00 65 1016.1
20260504221007 80 106 0.0 0.0 0.00 0.17 0.00 64 1016.2
20260504220507 80 138 0.0 0.0 0.00 0.17 0.00 65 1016.1
20260504220007 80 129 0.0 0.0 0.00 0.17 0.00 64 1016.1
20260504215506 81 133 0.0 0.0 0.00 0.17 0.00 64 1016.0
20260504215009 81 126 0.0 0.0 0.00 0.17 0.00 64 1015.9
20260504214511 81 83 0.0 0.0 0.00 0.17 0.00 64 1015.9
20260504214008 81 129 0.0 0.0 0.00 0.17 0.00 64 1015.8
20260504213506 81 151 0.0 0.0 0.00 0.17 0.00 64 1015.8
20260504213020 81 115 0.0 0.0 0.00 0.17 0.00 65 1015.7
20260504212506 81 121 0.0 0.0 0.00 0.17 0.00 64 1015.6
20260504212005 81 118 0.0 0.0 0.00 0.17 0.00 65 1015.6
20260504211511 81 98 0.0 0.0 0.00 0.17 0.00 65 1015.5
20260504211004 81 126 0.0 0.0 0.00 0.17 0.00 66 1015.5
20260504204537 80 155 0.0 0.0 0.10 0.17 0.17 67 1015.6
20260504204040 80 75 0.0 0.0 0.13 0.17 0.17 66 1015.6
20260504203537 80 98 0.0 0.0 0.17 0.17 0.17 67 1015.7
20260504203037 79 111 0.0 0.0 0.17 0.17 0.17 66 1015.7
20260504202536 79 86 0.0 0.0 0.17 0.17 0.17 68 1015.8
20260504202035 79 115 0.0 0.0 0.17 0.17 0.17 69 1015.9
20260504201536 78 91 0.0 0.0 0.17 0.17 0.17 70 1015.9
20260504201034 78 130 0.0 0.0 0.17 0.17 0.17 71 1016.0
20260504200534 78 177 0.0 0.0 0.17 0.17 0.17 70 1016.0
20260504200033 79 96 0.0 0.0 0.17 0.17 0.17 69 1016.0
20260504195532 79 132 0.0 0.0 0.16 0.16 0.16 68 1016.0
20260504195034 80 165 0.0 0.0 0.13 0.13 0.13 66 1016.1
20260504194531 82 111 0.0 0.0 0.06 0.06 0.06 64 1016.1
20260504194030 83 133 0.0 0.0 0.03 0.03 0.03 62 1016.0
20260504193528 85 167 0.0 0.0 0.00 0.00 0.00 59 1015.8
20260504193027 85 180 0.0 0.0 0.00 0.00 0.00 60 1015.9
20260504192526 84 158 0.0 0.0 0.00 0.00 0.00 60 1015.8
20260504192028 84 108 0.0 0.0 0.00 0.00 0.00 60 1015.8
20260504191526 84 226 0.0 0.0 0.00 0.00 0.00 60 1015.9
20260504191025 84 212 0.0 0.0 0.00 0.00 0.00 60 1015.9
20260504190525 84 205 0.0 0.0 0.00 0.00 0.00 60 1016.0
20260504190026 84 221 0.0 0.0 0.00 0.00 0.00 59 1016.0
20260504185526 85 115 0.0 0.0 0.00 0.00 0.00 58 1016.0
20260504185023 85 80 0.0 0.0 0.00 0.00 0.00 58 1016.0
20260504184522 85 205 0.0 0.0 0.00 0.00 0.00 58 1016.1
20260504184022 85 188 0.0 0.0 0.00 0.00 0.00 57 1016.1
20260504183522 86 171 0.0 0.0 0.00 0.00 0.00 59 1016.1
20260504183023 86 134 0.0 0.0 0.00 0.00 0.00 58 1016.1
20260504182523 86 201 0.0 0.0 0.00 0.00 0.00 59 1016.1
20260504182025 86 143 0.0 0.0 0.00 0.00 0.00 58 1016.1
20260504181519 86 120 0.0 0.0 0.00 0.00 0.00 57 1016.2
20260504181018 86 182 0.0 0.0 0.00 0.00 0.00 59 1016.2
20260504180516 85 200 0.0 0.0 0.00 0.00 0.00 59 1016.4
20260504180015 86 137 0.0 0.0 0.00 0.00 0.00 57 1016.4
20260504175515 86 141 0.0 0.0 0.00 0.00 0.00 58 1016.7
20260504175018 85 237 0.0 0.0 0.00 0.00 0.00 58 1016.8
20260504174515 85 186 0.0 0.0 0.00 0.00 0.00 58 1016.8
20260504174017 85 179 0.0 0.0 0.00 0.00 0.00 59 1016.9
20260504173514 86 175 0.0 0.0 0.00 0.00 0.00 58 1016.9
20260504173025 86 174 0.0 0.0 0.00 0.00 0.00 56 1016.9
20260504172513 87 85 0.0 0.0 0.00 0.00 0.00 55 1016.8
20260504172013 86 171 0.0 0.0 0.00 0.00 0.00 56 1016.8
20260504171518 86 118 0.0 0.0 0.00 0.00 0.00 56 1016.9
20260504171013 87 158 0.0 0.0 0.00 0.00 0.00 56 1016.9
20260504170513 87 163 0.0 0.0 0.00 0.00 0.00 56 1016.9
20260504151006 85 123 0.0 0.0 0.00 0.00 0.00 58 1017.8
20260504150504 85 119 0.0 0.0 0.00 0.00 0.00 58 1017.8
20260504141058 84 183 0.0 0.0 0.00 0.00 0.00 58 1017.8
20260504140600 83 155 0.0 0.0 0.00 0.00 0.00 58 1017.8
20260504140110 84 124 0.0 0.0 0.00 0.00 0.00 58 1017.9
20260504130555 82 134 0.0 0.0 0.00 0.00 0.00 61 1017.9
20260504110532 77 164 0.0 0.0 0.00 0.00 0.00 67 1017.9
20260504100521 0 0.0 0.0 0.00 0.00 0.00 1017.1
20260504081553 76 143 0.0 0.0 0.00 0.00 0.00 66 1016.4
20260504081049 76 167 0.0 0.0 0.00 0.00 0.00 66 1016.5
20260504080554 76 214 0.0 0.0 0.00 0.00 0.00 66 1016.5
20260504050533 77 197 0.0 0.0 0.00 0.00 0.00 66 1017.5
20260504045531 76 208 0.0 0.0 0.00 0.00 0.00 66 1017.5
20260504045031 76 162 0.0 0.0 0.00 0.00 0.00 66 1017.6
20260504044540 76 180 0.0 0.0 0.00 0.00 0.00 66 1017.6
20260504044033 76 179 0.0 0.0 0.00 0.00 0.00 66 1017.6
20260504043530 76 202 0.0 0.0 0.00 0.00 0.00 66 1017.6
20260504043034 77 158 0.0 0.0 0.00 0.00 0.00 66 1017.7
20260504042529 77 180 0.0 0.0 0.00 0.00 0.00 66 1017.8
20260504042029 77 200 0.0 0.0 0.00 0.00 0.00 66 1017.9
20260504041526 77 186 0.0 0.0 0.00 0.00 0.00 66 1018.0
20260504041026 77 141 0.0 0.0 0.00 0.00 0.00 66 1018.1
20260504040528 77 204 0.0 0.0 0.00 0.00 0.00 66 1018.2
20260504040025 77 108 0.0 0.0 0.00 0.00 0.00 66 1018.2
20260504035525 77 128 0.0 0.0 0.00 0.00 0.00 66 1018.4
20260504035024 77 203 0.0 0.0 0.00 0.00 0.00 66 1018.4
20260504034533 77 221 0.0 0.0 0.00 0.00 0.00 66 1018.4
20260504034024 77 206 0.0 0.0 0.00 0.00 0.00 66 1018.5
20260504033524 77 169 0.0 0.0 0.00 0.00 0.00 66 1018.4
20260504033035 77 212 0.0 0.0 0.00 0.00 0.00 66 1018.4
20260504032524 77 128 0.0 0.0 0.00 0.00 0.00 66 1018.3
20260504032026 77 165 0.0 0.0 0.00 0.00 0.00 66 1018.4
20260504031524 77 133 0.0 0.0 0.00 0.00 0.00 66 1018.3
20260504031023 77 148 0.0 0.0 0.00 0.00 0.00 66 1018.3
20260504030523 77 136 0.0 0.0 0.00 0.00 0.00 66 1018.2
20260504030024 77 111 0.0 0.0 0.00 0.00 0.00 66 1018.2
20260504025523 77 136 0.0 0.0 0.00 0.00 0.00 66 1018.2
20260504025024 77 152 0.0 0.0 0.00 0.00 0.00 66 1018.2
20260504024524 77 171 0.0 0.0 0.00 0.00 0.00 66 1018.2
20260504024023 77 138 0.0 0.0 0.00 0.00 0.00 66 1018.1
20260504023525 77 131 0.0 0.0 0.00 0.00 0.00 66 1018.3
20260504023023 77 124 0.0 0.0 0.00 0.00 0.00 66 1018.1